| time (UTC) | temp F | wind direction | speed knots | gust knots | rain 1hr in | rain 24hr in | rain mn in | humidity % | barometer mb |
| 20260502151508 | 56 | 252 | 2.6 | 6.1 | 0.00 | 0.00 | 0.00 | 39 | 1021.9 |
| 20260502151008 | 55 | 321 | 3.5 | 6.1 | 0.00 | 0.00 | 0.00 | 41 | 1022.0 |
| 20260502150504 | 55 | 300 | 1.7 | 6.1 | 0.00 | 0.00 | 0.00 | 43 | 1022.0 |
| 20260502130504 | 45 | 309 | 0.0 | 1.7 | 0.00 | 0.00 | 0.00 | 64 | 1022.0 |
| 20260502123510 | 40 | 309 | 0.0 | 0.9 | 0.00 | 0.00 | 0.00 | 73 | 1022.1 |
| 20260502123022 | 39 | 309 | 0.0 | 0.9 | 0.00 | 0.00 | 0.00 | 74 | 1022.1 |
| 20260502122507 | 38 | 309 | 0.0 | 0.0 | 0.00 | 0.00 | 0.00 | 78 | 1022.1 |
| 20260502122015 | 36 | 309 | 0.0 | 0.0 | 0.00 | 0.00 | 0.00 | 82 | 1022.0 |
| 20260502121522 | 35 | 309 | 0.0 | 0.0 | 0.00 | 0.00 | 0.00 | 83 | 1022.0 |
| 20260502121004 | 34 | 309 | 0.0 | 0.0 | 0.00 | 0.00 | 0.00 | 84 | 1021.9 |
| 20260502120511 | 33 | 309 | 0.0 | 0.0 | 0.00 | 0.00 | 0.00 | 83 | 1021.8 |
| 20260502115506 | 33 | 309 | 0.0 | 0.0 | 0.00 | 0.00 | 0.00 | 82 | 1021.8 |
| 20260502115007 | 34 | 309 | 0.0 | 0.0 | 0.00 | 0.00 | 0.00 | 81 | 1021.8 |
| 20260502114517 | 34 | 309 | 0.0 | 0.0 | 0.00 | 0.00 | 0.00 | 81 | 1021.8 |
| 20260502114007 | 34 | 309 | 0.0 | 1.7 | 0.00 | 0.00 | 0.00 | 81 | 1021.7 |
| 20260502113508 | 34 | 309 | 0.0 | 1.7 | 0.00 | 0.00 | 0.00 | 81 | 1021.7 |
| 20260502113016 | 34 | 309 | 0.0 | 1.7 | 0.00 | 0.00 | 0.00 | 80 | 1021.7 |
| 20260502112504 | 34 | 309 | 0.0 | 1.7 | 0.00 | 0.00 | 0.00 | 80 | 1021.6 |
| 20260502112011 | 34 | 309 | 0.0 | 1.7 | 0.00 | 0.00 | 0.00 | 79 | 1021.6 |
| 20260502111506 | 34 | 309 | 0.9 | 0.9 | 0.00 | 0.00 | 0.00 | 78 | 1021.6 |
| 20260502111003 | 35 | 309 | 0.0 | 0.0 | 0.00 | 0.00 | 0.00 | 77 | 1021.5 |
| 20260502110503 | 35 | 309 | 0.0 | 0.0 | 0.00 | 0.00 | 0.00 | 77 | 1021.5 |
| 20260502110011 | 36 | 309 | 0.0 | 0.0 | 0.00 | 0.00 | 0.00 | 76 | 1021.5 |
| 20260502105504 | 36 | 309 | 0.0 | 1.7 | 0.00 | 0.00 | 0.00 | 76 | 1021.4 |
| 20260502105004 | 36 | 309 | 0.0 | 2.6 | 0.00 | 0.00 | 0.00 | 76 | 1021.4 |
| 20260502104508 | 36 | 309 | 0.9 | 2.6 | 0.00 | 0.00 | 0.00 | 76 | 1021.4 |
| 20260502104006 | 36 | 309 | 0.9 | 2.6 | 0.00 | 0.00 | 0.00 | 76 | 1021.5 |
| 20260502103504 | 36 | 318 | 0.9 | 2.6 | 0.00 | 0.00 | 0.00 | 76 | 1021.5 |
| 20260502103019 | 36 | 318 | 0.9 | 2.6 | 0.00 | 0.00 | 0.00 | 76 | 1021.4 |
| 20260502102509 | 36 | 320 | 0.9 | 1.7 | 0.00 | 0.00 | 0.00 | 76 | 1021.4 |
| 20260502102005 | 36 | 320 | 0.9 | 1.7 | 0.00 | 0.00 | 0.00 | 77 | 1021.4 |
| 20260502101541 | 36 | 320 | 0.9 | 0.9 | 0.00 | 0.00 | 0.00 | 78 | 1021.3 |
| 20260502101004 | 35 | 320 | 0.9 | 0.9 | 0.00 | 0.00 | 0.00 | 78 | 1021.3 |
| 20260502100504 | 35 | 320 | 0.9 | 1.7 | 0.00 | 0.00 | 0.00 | 79 | 1021.2 |
| 20260502091514 | 36 | 334 | 0.9 | 1.7 | 0.00 | 0.00 | 0.00 | 76 | 1021.1 |
| 20260502091008 | 36 | 334 | 0.0 | 1.7 | 0.00 | 0.00 | 0.00 | 76 | 1021.1 |
| 20260502090504 | 36 | 334 | 0.9 | 1.7 | 0.00 | 0.00 | 0.00 | 76 | 1021.0 |
| 20260502071514 | 36 | 17 | 0.0 | 0.9 | 0.00 | 0.00 | 0.00 | 71 | 1021.1 |
| 20260502071011 | 36 | 17 | 0.0 | 0.9 | 0.00 | 0.00 | 0.00 | 71 | 1021.1 |
| 20260502070505 | 36 | 17 | 0.0 | 0.0 | 0.00 | 0.00 | 0.00 | 71 | 1021.2 |
| 20260502070017 | 36 | 17 | 0.0 | 0.0 | 0.00 | 0.00 | 0.00 | 69 | 1021.2 |
| 20260502065508 | 36 | 17 | 0.0 | 1.7 | 0.00 | 0.00 | 0.00 | 68 | 1021.2 |
| 20260502065007 | 37 | 17 | 0.0 | 1.7 | 0.00 | 0.00 | 0.00 | 68 | 1021.1 |
| 20260502064526 | 37 | 18 | 0.0 | 0.9 | 0.00 | 0.00 | 0.00 | 67 | 1021.1 |
| 20260502064007 | 37 | 17 | 0.0 | 0.9 | 0.00 | 0.00 | 0.00 | 67 | 1021.1 |
| 20260502063506 | 37 | 17 | 0.0 | 0.0 | 0.00 | 0.00 | 0.00 | 66 | 1021.1 |
| 20260502063035 | 37 | 17 | 0.0 | 0.0 | 0.00 | 0.00 | 0.00 | 66 | 1021.1 |
| 20260502062508 | 38 | 18 | 0.0 | 0.0 | 0.00 | 0.00 | 0.00 | 66 | 1021.1 |
| 20260502062007 | 38 | 17 | 0.0 | 0.0 | 0.00 | 0.00 | 0.00 | 66 | 1021.0 |
| 20260502061513 | 38 | 17 | 0.0 | 0.0 | 0.00 | 0.00 | 0.00 | 66 | 1021.0 |
| 20260502061004 | 38 | 17 | 0.0 | 0.0 | 0.00 | 0.00 | 0.00 | 64 | 1020.9 |
| 20260502060504 | 38 | 17 | 0.0 | 0.0 | 0.00 | 0.00 | 0.00 | 63 | 1020.9 |
| 20260502060018 | 39 | 17 | 0.0 | 0.0 | 0.00 | 0.00 | 0.00 | 63 | 1020.9 |
| 20260502055505 | 39 | 17 | 0.0 | 0.0 | 0.00 | 0.00 | 0.00 | 62 | 1020.9 |
| 20260502055009 | 39 | 17 | 0.0 | 1.7 | 0.00 | 0.00 | 0.00 | 61 | 1020.9 |
| 20260502054524 | 40 | 17 | 0.0 | 1.7 | 0.00 | 0.00 | 0.00 | 61 | 1020.9 |
| 20260502054005 | 40 | 17 | 0.0 | 1.7 | 0.00 | 0.00 | 0.00 | 61 | 1020.9 |
| 20260502053513 | 40 | 17 | 0.0 | 1.7 | 0.00 | 0.00 | 0.00 | 60 | 1020.8 |
| 20260502053021 | 40 | 17 | 0.0 | 1.7 | 0.00 | 0.00 | 0.00 | 60 | 1020.8 |
| 20260502052510 | 40 | 17 | 0.0 | 0.0 | 0.00 | 0.00 | 0.00 | 59 | 1020.9 |
| 20260502052009 | 41 | 18 | 0.0 | 0.9 | 0.00 | 0.00 | 0.00 | 58 | 1020.8 |
| 20260502051521 | 41 | 18 | 0.0 | 0.9 | 0.00 | 0.00 | 0.00 | 57 | 1020.8 |
| 20260502051008 | 41 | 17 | 0.0 | 0.9 | 0.00 | 0.00 | 0.00 | 57 | 1020.8 |
| 20260502050509 | 41 | 17 | 0.0 | 0.9 | 0.00 | 0.00 | 0.00 | 57 | 1020.8 |
| 20260502050016 | 41 | 18 | 0.0 | 1.7 | 0.00 | 0.00 | 0.00 | 57 | 1020.8 |
| 20260502045508 | 41 | 17 | 0.0 | 1.7 | 0.00 | 0.00 | 0.00 | 57 | 1020.7 |
| 20260502045006 | 41 | 17 | 0.0 | 1.7 | 0.00 | 0.00 | 0.00 | 57 | 1020.7 |
| 20260502044522 | 41 | 17 | 0.0 | 1.7 | 0.00 | 0.00 | 0.00 | 57 | 1020.7 |
| 20260502044009 | 41 | 18 | 0.0 | 1.7 | 0.00 | 0.00 | 0.00 | 56 | 1020.7 |
| 20260502043506 | 42 | 17 | 0.0 | 1.7 | 0.00 | 0.00 | 0.00 | 56 | 1020.7 |
| 20260502043026 | 42 | 17 | 0.0 | 1.7 | 0.00 | 0.00 | 0.00 | 56 | 1020.7 |
| 20260502042507 | 42 | 17 | 0.0 | 1.7 | 0.00 | 0.00 | 0.00 | 55 | 1020.7 |
| 20260502042007 | 42 | 17 | 0.0 | 1.7 | 0.00 | 0.00 | 0.00 | 55 | 1020.7 |
| 20260502041528 | 42 | 17 | 0.0 | 1.7 | 0.00 | 0.00 | 0.00 | 54 | 1020.7 |
| 20260502041008 | 43 | 17 | 0.0 | 1.7 | 0.00 | 0.00 | 0.00 | 53 | 1020.6 |
| 20260502040511 | 43 | 17 | 0.0 | 1.7 | 0.00 | 0.00 | 0.00 | 52 | 1020.7 |
| 20260502040028 | 43 | 17 | 0.0 | 0.0 | 0.00 | 0.00 | 0.00 | 52 | 1020.6 |
| 20260502035507 | 44 | 18 | 0.0 | 0.0 | 0.00 | 0.00 | 0.00 | 51 | 1020.6 |
| 20260502035004 | 44 | 17 | 0.0 | 0.0 | 0.00 | 0.00 | 0.00 | 51 | 1020.6 |
| 20260502034525 | 44 | 17 | 0.0 | 0.0 | 0.00 | 0.00 | 0.00 | 50 | 1020.7 |
| 20260502034008 | 45 | 17 | 0.0 | 0.0 | 0.00 | 0.00 | 0.00 | 49 | 1020.6 |
| 20260502033504 | 45 | 17 | 0.0 | 0.0 | 0.00 | 0.00 | 0.00 | 49 | 1020.6 |
| 20260502033021 | 46 | 17 | 0.0 | 0.0 | 0.00 | 0.00 | 0.00 | 48 | 1020.6 |
| 20260502032506 | 46 | 17 | 0.0 | 0.0 | 0.00 | 0.00 | 0.00 | 46 | 1020.5 |
| 20260502032008 | 47 | 17 | 0.0 | 0.0 | 0.00 | 0.00 | 0.00 | 45 | 1020.5 |
| 20260502031520 | 47 | 17 | 0.0 | 1.7 | 0.00 | 0.00 | 0.00 | 44 | 1020.5 |
| 20260502031007 | 48 | 17 | 0.0 | 1.7 | 0.00 | 0.00 | 0.00 | 43 | 1020.5 |
| 20260502030507 | 48 | 17 | 0.9 | 2.6 | 0.00 | 0.00 | 0.00 | 43 | 1020.4 |
| 20260502030026 | 48 | 17 | 0.9 | 3.5 | 0.00 | 0.00 | 0.00 | 42 | 1020.4 |
| 20260502025508 | 49 | 2 | 0.9 | 3.5 | 0.00 | 0.00 | 0.00 | 41 | 1020.3 |
| 20260502025008 | 49 | 11 | 0.9 | 2.6 | 0.00 | 0.00 | 0.00 | 40 | 1020.2 |
| 20260502024511 | 49 | 12 | 1.7 | 3.5 | 0.00 | 0.00 | 0.00 | 40 | 1020.2 |
| 20260502024004 | 49 | 11 | 1.7 | 4.3 | 0.00 | 0.00 | 0.00 | 39 | 1020.1 |
| 20260502023507 | 50 | 13 | 2.6 | 4.3 | 0.00 | 0.00 | 0.00 | 39 | 1020.0 |
| 20260502023012 | 50 | 13 | 2.6 | 7.0 | 0.00 | 0.00 | 0.00 | 39 | 1019.9 |
| 20260502022504 | 50 | 14 | 2.6 | 7.0 | 0.00 | 0.00 | 0.00 | 38 | 1020.0 |
| 20260502022003 | 50 | 19 | 2.6 | 7.0 | 0.00 | 0.00 | 0.00 | 39 | 1019.9 |
| 20260502021505 | 50 | 36 | 2.6 | 8.7 | 0.00 | 0.00 | 0.00 | 38 | 1019.8 |
| 20260502021003 | 50 | 21 | 3.5 | 8.7 | 0.00 | 0.00 | 0.00 | 38 | 1019.7 |
| 20260502020504 | 50 | 23 | 2.6 | 7.8 | 0.00 | 0.00 | 0.00 | 38 | 1019.6 |
| 20260502020008 | 50 | 349 | 3.5 | 10.4 | 0.00 | 0.00 | 0.00 | 38 | 1019.5 |
| 20260502015503 | 51 | 15 | 3.5 | 10.4 | 0.00 | 0.00 | 0.00 | 38 | 1019.3 |
| 20260502015005 | 51 | 23 | 2.6 | 7.0 | 0.00 | 0.00 | 0.00 | 38 | 1019.3 |
| 20260502014503 | 51 | 21 | 2.6 | 7.0 | 0.00 | 0.00 | 0.00 | 37 | 1019.3 |
| 20260502014012 | 51 | 1 | 2.6 | 7.0 | 0.00 | 0.00 | 0.00 | 37 | 1019.3 |
| 20260502013502 | 51 | 360 | 1.7 | 6.1 | 0.00 | 0.00 | 0.00 | 37 | 1019.3 |
| 20260502013017 | 52 | 32 | 3.5 | 7.0 | 0.00 | 0.00 | 0.00 | 37 | 1019.3 |
| 20260502012504 | 52 | 15 | 2.6 | 7.0 | 0.00 | 0.00 | 0.00 | 37 | 1019.3 |
| 20260502012004 | 52 | 50 | 4.3 | 9.6 | 0.00 | 0.00 | 0.00 | 37 | 1019.2 |
| 20260502011525 | 52 | 5 | 2.6 | 10.4 | 0.00 | 0.00 | 0.00 | 36 | 1019.2 |
| 20260502011005 | 53 | 358 | 4.3 | 10.4 | 0.00 | 0.00 | 0.00 | 36 | 1019.1 |
| 20260502010504 | 53 | 17 | 5.2 | 11.3 | 0.00 | 0.00 | 0.00 | 35 | 1019.1 |
| 20260502010005 | 53 | 49 | 6.1 | 11.3 | 0.00 | 0.00 | 0.00 | 35 | 1019.0 |
| 20260502005504 | 53 | 28 | 4.3 | 6.1 | 0.00 | 0.00 | 0.00 | 35 | 1018.9 |
| 20260502005003 | 54 | 7 | 2.6 | 11.3 | 0.00 | 0.00 | 0.00 | 34 | 1018.9 |
| 20260502004511 | 54 | 356 | 2.6 | 11.3 | 0.00 | 0.00 | 0.00 | 34 | 1018.8 |
| 20260502004002 | 54 | 331 | 5.2 | 12.2 | 0.00 | 0.00 | 0.00 | 34 | 1018.7 |
| 20260502003502 | 54 | 55 | 7.8 | 12.2 | 0.00 | 0.00 | 0.00 | 33 | 1018.7 |
| 20260502003013 | 55 | 32 | 6.1 | 12.2 | 0.00 | 0.00 | 0.00 | 34 | 1018.6 |
| 20260502002504 | 55 | 9 | 6.1 | 12.2 | 0.00 | 0.00 | 0.00 | 33 | 1018.6 |
| 20260502002010 | 55 | 290 | 4.3 | 14.8 | 0.00 | 0.00 | 0.00 | 32 | 1018.6 |
| 20260502001514 | 56 | 290 | 6.1 | 14.8 | 0.00 | 0.00 | 0.00 | 31 | 1018.7 |
| 20260502001004 | 57 | 331 | 4.3 | 14.8 | 0.00 | 0.00 | 0.00 | 31 | 1018.5 |
| 20260502000506 | 57 | 36 | 7.8 | 14.8 | 0.00 | 0.00 | 0.00 | 32 | 1018.6 |
| 20260502000008 | 57 | 346 | 4.3 | 10.4 | 0.00 | 0.00 | 0.00 | 31 | 1018.6 |
| 20260501235503 | 57 | 94 | 5.2 | 11.3 | 0.00 | 0.00 | 0.00 | 31 | 1018.6 |
| 20260501235003 | 57 | 23 | 5.2 | 12.2 | 0.00 | 0.00 | 0.00 | 32 | 1018.5 |
| 20260501234508 | 57 | 321 | 5.2 | 14.8 | 0.00 | 0.00 | 0.00 | 31 | 1018.5 |
| 20260501234003 | 58 | 52 | 7.0 | 14.8 | 0.00 | 0.00 | 0.00 | 31 | 1018.4 |
| 20260501233503 | 58 | 345 | 7.0 | 12.2 | 0.00 | 0.00 | 0.00 | 31 | 1018.4 |
| 20260501233019 | 57 | 13 | 6.1 | 12.2 | 0.00 | 0.00 | 0.00 | 31 | 1018.4 |
| 20260501232504 | 58 | 340 | 4.3 | 14.8 | 0.00 | 0.00 | 0.00 | 29 | 1018.5 |
| 20260501232004 | 58 | 320 | 5.2 | 12.2 | 0.00 | 0.00 | 0.00 | 31 | 1018.3 |
| 20260501231515 | 58 | 330 | 5.2 | 10.4 | 0.00 | 0.00 | 0.00 | 31 | 1018.4 |
| 20260501231004 | 58 | 8 | 5.2 | 12.2 | 0.00 | 0.00 | 0.00 | 31 | 1018.3 |
| 20260501230506 | 58 | 6 | 2.6 | 14.8 | 0.00 | 0.00 | 0.00 | 30 | 1018.3 |
| 20260501230024 | 58 | 14 | 9.6 | 14.8 | 0.00 | 0.00 | 0.00 | 30 | 1018.3 |
| 20260501225505 | 59 | 296 | 7.0 | 14.8 | 0.00 | 0.00 | 0.00 | 32 | 1018.3 |
| 20260501225010 | 59 | 17 | 4.3 | 11.3 | 0.00 | 0.00 | 0.00 | 30 | 1018.2 |
| 20260501224505 | 59 | 4 | 3.5 | 10.4 | 0.00 | 0.00 | 0.00 | 30 | 1018.2 |
| 20260501224003 | 59 | 310 | 7.0 | 9.6 | 0.00 | 0.00 | 0.00 | 30 | 1018.2 |
| 20260501223504 | 59 | 326 | 5.2 | 12.2 | 0.00 | 0.00 | 0.00 | 31 | 1018.2 |
| 20260501223007 | 59 | 17 | 5.2 | 14.8 | 0.00 | 0.00 | 0.00 | 30 | 1018.3 |
| 20260501222503 | 59 | 336 | 6.1 | 14.8 | 0.00 | 0.00 | 0.00 | 30 | 1018.2 |
| 20260501222004 | 59 | 15 | 4.3 | 14.8 | 0.00 | 0.00 | 0.00 | 33 | 1018.2 |
| 20260501221515 | 59 | 17 | 8.7 | 14.8 | 0.00 | 0.00 | 0.00 | 31 | 1018.2 |
| 20260501221004 | 59 | 311 | 6.1 | 12.2 | 0.00 | 0.00 | 0.00 | 30 | 1018.1 |
| 20260501220506 | 59 | 321 | 5.2 | 15.6 | 0.00 | 0.00 | 0.00 | 31 | 1018.1 |
| 20260501220008 | 59 | 319 | 5.2 | 15.6 | 0.00 | 0.00 | 0.00 | 31 | 1018.2 |
| 20260501215507 | 59 | 18 | 4.3 | 13.9 | 0.00 | 0.00 | 0.00 | 30 | 1018.2 |
| 20260501215005 | 59 | 310 | 7.0 | 13.9 | 0.00 | 0.00 | 0.00 | 30 | 1018.2 |
| 20260501214509 | 59 | 315 | 7.8 | 13.0 | 0.00 | 0.00 | 0.00 | 31 | 1018.2 |
| 20260501214008 | 59 | 304 | 3.5 | 12.2 | 0.00 | 0.00 | 0.00 | 33 | 1018.2 |
| 20260501213504 | 59 | 7 | 7.0 | 12.2 | 0.00 | 0.00 | 0.00 | 31 | 1018.2 |
| 20260501213008 | 59 | 342 | 7.8 | 13.9 | 0.00 | 0.00 | 0.00 | 32 | 1018.2 |
| 20260501212505 | 59 | 309 | 2.6 | 13.9 | 0.00 | 0.00 | 0.00 | 33 | 1018.2 |
| 20260501212005 | 59 | 353 | 7.8 | 14.8 | 0.00 | 0.00 | 0.00 | 33 | 1018.3 |
| 20260501211514 | 59 | 352 | 5.2 | 14.8 | 0.00 | 0.00 | 0.00 | 34 | 1018.4 |
| 20260501211004 | 59 | 306 | 4.3 | 13.0 | 0.00 | 0.00 | 0.00 | 35 | 1018.4 |
| 20260501210504 | 59 | 336 | 7.0 | 13.9 | 0.00 | 0.00 | 0.00 | 36 | 1018.5 |
| 20260501210019 | 59 | 326 | 6.1 | 13.9 | 0.00 | 0.00 | 0.00 | 35 | 1018.5 |
| 20260501205505 | 59 | 313 | 6.1 | 13.9 | 0.00 | 0.00 | 0.00 | 35 | 1018.5 |
| 20260501205005 | 58 | 346 | 4.3 | 16.5 | 0.00 | 0.00 | 0.00 | 35 | 1018.5 |
| 20260501204518 | 59 | 356 | 7.8 | 15.6 | 0.00 | 0.00 | 0.00 | 35 | 1018.6 |
| 20260501204006 | 58 | 30 | 4.3 | 7.8 | 0.00 | 0.00 | 0.00 | 36 | 1018.6 |
| 20260501203506 | 58 | 311 | 2.6 | 11.3 | 0.00 | 0.00 | 0.00 | 37 | 1018.7 |
| 20260501203033 | 58 | 36 | 4.3 | 14.8 | 0.00 | 0.00 | 0.00 | 36 | 1018.7 |
| 20260501202505 | 58 | 9 | 8.7 | 14.8 | 0.00 | 0.00 | 0.00 | 35 | 1018.8 |
| 20260501202004 | 59 | 343 | 5.2 | 10.4 | 0.00 | 0.00 | 0.00 | 35 | 1018.7 |
| 20260501201508 | 58 | 329 | 7.0 | 13.9 | 0.00 | 0.00 | 0.00 | 38 | 1018.9 |
| 20260501201004 | 58 | 287 | 9.6 | 14.8 | 0.00 | 0.00 | 0.00 | 36 | 1018.9 |
| 20260501200505 | 59 | 13 | 6.1 | 14.8 | 0.00 | 0.00 | 0.00 | 40 | 1018.9 |
| 20260501200012 | 59 | 300 | 6.1 | 13.9 | 0.00 | 0.00 | 0.00 | 40 | 1018.9 |
| 20260501195508 | 58 | 26 | 7.0 | 13.9 | 0.00 | 0.00 | 0.00 | 40 | 1018.9 |
| 20260501195008 | 58 | 300 | 5.2 | 12.2 | 0.00 | 0.00 | 0.00 | 39 | 1018.8 |
| 20260501194517 | 58 | 18 | 6.1 | 13.0 | 0.00 | 0.00 | 0.00 | 39 | 1018.8 |
| 20260501194005 | 57 | 11 | 6.1 | 13.0 | 0.00 | 0.00 | 0.00 | 41 | 1018.8 |
| 20260501193506 | 57 | 333 | 8.7 | 15.6 | 0.00 | 0.00 | 0.00 | 40 | 1018.9 |
| 20260501193037 | 56 | 316 | 6.1 | 15.6 | 0.00 | 0.00 | 0.00 | 38 | 1018.8 |
| 20260501192508 | 57 | 318 | 6.1 | 11.3 | 0.00 | 0.00 | 0.00 | 39 | 1018.8 |
| 20260501192003 | 57 | 331 | 2.6 | 13.9 | 0.00 | 0.00 | 0.00 | 40 | 1018.7 |
| 20260501191524 | 56 | 301 | 6.1 | 13.9 | 0.00 | 0.00 | 0.00 | 42 | 1018.8 |
| 20260501191003 | 56 | 329 | 4.3 | 13.9 | 0.00 | 0.00 | 0.00 | 41 | 1018.8 |
| 20260501190502 | 57 | 66 | 7.8 | 13.9 | 0.00 | 0.00 | 0.00 | 42 | 1018.8 |
| 20260501190014 | 56 | 317 | 6.1 | 13.9 | 0.00 | 0.00 | 0.00 | 41 | 1018.8 |
| 20260501185506 | 56 | 316 | 7.8 | 13.9 | 0.00 | 0.00 | 0.00 | 43 | 1018.8 |
| 20260501185007 | 56 | 328 | 3.5 | 13.9 | 0.00 | 0.00 | 0.00 | 41 | 1018.8 |
| 20260501184524 | 56 | 298 | 5.2 | 13.0 | 0.00 | 0.00 | 0.00 | 43 | 1018.8 |
| 20260501184007 | 55 | 21 | 8.7 | 14.8 | 0.00 | 0.00 | 0.00 | 43 | 1018.8 |
| 20260501183510 | 56 | 339 | 7.8 | 14.8 | 0.00 | 0.00 | 0.00 | 43 | 1018.8 |
| 20260501183023 | 56 | 45 | 6.1 | 13.9 | 0.00 | 0.00 | 0.00 | 43 | 1018.9 |
| 20260501182507 | 56 | 7 | 8.7 | 13.9 | 0.00 | 0.00 | 0.00 | 44 | 1018.9 |
| 20260501182012 | 57 | 323 | 8.7 | 13.9 | 0.00 | 0.00 | 0.00 | 46 | 1018.8 |
| 20260501181535 | 58 | 352 | 6.1 | 18.2 | 0.00 | 0.00 | 0.00 | 1018.9 | |
| 20260501181003 | 58 | 3 | 8.7 | 18.2 | 0.00 | 0.00 | 0.00 | 1018.9 | |
| 20260501180510 | 57 | 31 | 6.1 | 15.6 | 0.00 | 0.00 | 0.00 | 1018.8 | |
| 20260501180014 | 57 | 19 | 4.3 | 14.8 | 0.00 | 0.00 | 0.00 | 48 | 1018.9 |
| 20260501175502 | 57 | 329 | 6.1 | 13.0 | 0.00 | 0.00 | 0.00 | 48 | 1019.0 |
| 20260501175008 | 57 | 321 | 6.1 | 13.9 | 0.00 | 0.00 | 0.00 | 48 | 1018.9 |
| 20260501174514 | 57 | 40 | 7.8 | 15.6 | 0.00 | 0.00 | 0.00 | 46 | 1018.9 |
| 20260501174010 | 57 | 354 | 6.1 | 15.6 | 0.00 | 0.00 | 0.00 | 48 | 1019.0 |
| 20260501173507 | 56 | 342 | 8.7 | 13.9 | 0.00 | 0.00 | 0.00 | 47 | 1019.0 |
| 20260501173011 | 57 | 315 | 6.1 | 15.6 | 0.00 | 0.00 | 0.00 | 49 | 1019.1 |
| 20260501172503 | 56 | 33 | 9.6 | 13.9 | 0.00 | 0.00 | 0.00 | 49 | 1019.1 |
| 20260501172006 | 56 | 348 | 7.0 | 13.9 | 0.00 | 0.00 | 0.00 | 46 | 1019.1 |
| 20260501171504 | 55 | 358 | 7.0 | 13.9 | 0.00 | 0.00 | 0.00 | 48 | 1019.2 |
| 20260501171003 | 55 | 308 | 6.1 | 14.8 | 0.00 | 0.00 | 0.00 | 50 | 1019.1 |
| 20260501170503 | 55 | 42 | 7.0 | 14.8 | 0.00 | 0.00 | 0.00 | 48 | 1019.2 |
| 20260501170008 | 56 | 44 | 7.0 | 13.0 | 0.00 | 0.00 | 0.00 | 51 | 1019.1 |
| 20260501165506 | 56 | 38 | 7.0 | 17.4 | 0.00 | 0.00 | 0.00 | 48 | 1019.1 |
| 20260501165004 | 55 | 348 | 6.1 | 17.4 | 0.00 | 0.00 | 0.00 | 48 | 1019.1 |
| 20260501164507 | 56 | 337 | 8.7 | 15.6 | 0.00 | 0.00 | 0.00 | 49 | 1019.1 |
| 20260501164008 | 56 | 303 | 7.8 | 15.6 | 0.00 | 0.00 | 0.00 | 49 | 1019.2 |
| 20260501163503 | 56 | 327 | 6.1 | 14.8 | 0.00 | 0.00 | 0.00 | 51 | 1019.1 |
| 20260501163033 | 55 | 44 | 7.0 | 14.8 | 0.00 | 0.00 | 0.00 | 51 | 1019.1 |
| 20260501162506 | 56 | 359 | 7.0 | 14.8 | 0.00 | 0.00 | 0.00 | 51 | 1019.1 |
| 20260501162003 | 55 | 19 | 7.0 | 14.8 | 0.00 | 0.00 | 0.00 | 51 | 1019.1 |
| 20260501161520 | 55 | 320 | 7.0 | 13.0 | 0.00 | 0.00 | 0.00 | 54 | 1019.0 |
| 20260501161005 | 55 | 327 | 7.0 | 14.8 | 0.00 | 0.00 | 0.00 | 54 | 1019.0 |
| 20260501160502 | 55 | 47 | 7.0 | 14.8 | 0.00 | 0.00 | 0.00 | 51 | 1019.0 |
| 20260501160004 | 55 | 31 | 6.1 | 12.2 | 0.00 | 0.00 | 0.00 | 56 | 1019.0 |
| 20260501155502 | 54 | 302 | 6.1 | 12.2 | 0.00 | 0.00 | 0.00 | 56 | 1019.0 |
| 20260501155005 | 54 | 314 | 5.2 | 12.2 | 0.00 | 0.00 | 0.00 | 56 | 1019.0 |
| 20260501154514 | 53 | 348 | 7.0 | 14.8 | 0.00 | 0.00 | 0.00 | 55 | 1018.9 |
| 20260501154005 | 53 | 309 | 6.1 | 14.8 | 0.00 | 0.00 | 0.00 | 56 | 1018.9 |
| 20260501153503 | 53 | 328 | 6.1 | 10.4 | 0.00 | 0.00 | 0.00 | 57 | 1018.9 |
| 20260501153012 | 52 | 325 | 6.1 | 10.4 | 0.00 | 0.00 | 0.00 | 56 | 1018.9 |
| 20260501152504 | 52 | 329 | 6.1 | 9.6 | 0.00 | 0.00 | 0.00 | 55 | 1018.8 |
| 20260501152009 | 52 | 299 | 3.5 | 11.3 | 0.00 | 0.00 | 0.00 | 57 | 1018.8 |